Retour au catalogue

CZ-3A DEB

LostGTO
NORAD 40152·DEBRIS·🇨🇳 China

Lancé Feb 2, 2007 depuis Xichang Satellite Launch Center

Loading…

TLE

PériméSource: Space-Track

Époque: Jun 16, 2026, 04:16 UTC

1 40152U 07003AL  26167.17778131 -.00000091  00000-0  00000-0 0  9990
2 40152  28.6407  41.7246 7300282 164.9801 241.8480  1.90830497   587

Suivez CZ-3A DEB en temps réel avec AllMySat

Download on the App Store